Location: Aalen
(48.8330°N, 10.1000°E)
Time: 04:59:34
(UTC+02:00)

Transit 2A - Pass Details

Date: 01 August 2021
Orbit: 594 x 964 km, 66.7° (Epoch: 27 September)

Event Time Altitude Azimuth Distance (km) Brightness Sun altitude
Rises 07:13:04 0° 193° (SSW) 2,828 8.7 11.3°
Reaches altitude 10° 07:15:20 10° 186° (S) 1,947 8.0 11.7°
Maximum altitude 07:19:25 41° 116° (ESE) 920 7.3 12.4°
Drops below altitude 10° 07:23:47 10° 47° (NE) 2,089 9.5 13.1°
Sets 07:26:17 0° 40° (NE) 3,063 10.0 13.5°
